Flag for Norway Weather past 2 weeks in Knarrevik/Straume, Norway

Now
53 °F

Overcast.


Feels Like: 51 °F
Forecast: 51 / 53 °F
Wind: 7 mph from Southwest

Location: Bergen / Flesland

Current Time: Oct 24, 2014 at 3:16:48 PM

Latest Report: Oct 24, 2014 at 2:00 PM


Visibility: 11 mi

Pressure: 29.72 "Hg

Humidity: 84%

Dew point: 49 °F

Location of Knarrevik/StraumeLocation

Historic Weather in Knarrevik/Straume — Graph

°F

Knarrevik/Straume temperature yesterday

Maximum temperature yesterday: 52 °F (at 4:00 PM)
Minimum temperature yesterday: 47 °F (at 6:00 AM)
Average temperature yesterday: 50 °F

Past Weeks' High & Low Weather Summary

 TemperatureHumidityPressure
High72 °F (Oct 11, 7:00 PM)100% (Oct 11, 4:00 PM)29.99 "Hg (Oct 11, 4:00 PM)
Low35 °F (Oct 17, 7:00 AM)43% (Oct 16, 6:00 PM)29.18 "Hg (Oct 21, 3:00 PM)
Average50 °F83%29.69 "Hg
* Reported Oct 9 2:00 PM — Oct 24 2:00 PM, Knarrevik/Straume, Weather by CustomWeather, © 2014

Note: Actual official high and low records may vary slightly from our data, if they occured in-between our weather recording intervals... More about our weather records

Advertising

Knarrevik/Straume weather history for previous 24 hours

 ConditionsComfort  
Time TempWeatherWind HumidityBarometerVisibility
2:00 PM
Oct 24
53 °FOvercast.7 mph84%29.72 "Hg11 mi
1:00 PM53 °FOvercast.6 mph90%29.72 "Hg11 mi
12:00 PM53 °FOvercast.5 mph88%29.71 "Hg10 mi
11:00 AM52 °FOvercast.5 mph91%29.70 "Hg9 mi
10:00 AM51 °FOvercast.3 mph89%29.70 "Hg22 mi
9:00 AM53 °FLight rain. Low clouds.6 mph93%29.68 "Hg4 mi
8:00 AM53 °FRain showers. Overcast.7 mph93%29.67 "Hg6 mi
7:00 AM53 °FOvercast.7 mph94%29.65 "Hg7 mi
6:00 AM53 °FRain showers. Low clouds.10 mph95%29.65 "Hg5 mi
5:00 AM53 °FLight rain. Low clouds.10 mph97%29.64 "Hg2 mi
4:00 AM52 °FHail. Low clouds.13 mph95%29.65 "Hg2 mi
3:00 AM52 °FRain. Low clouds.15 mph93%29.65 "Hg2 mi
2:00 AM52 °FRain. Overcast.14 mph94%29.66 "Hg2 mi
1:00 AM52 °FHail. Low clouds.14 mph95%29.67 "Hg2 mi
12:00 AM52 °FRain. Low clouds.14 mph97%29.68 "Hg1 mi
11:00 PM
Oct 23
52 °FRain. Low clouds.12 mph97%29.69 "Hg3 mi
10:00 PM52 °FRain. Low clouds.10 mph96%29.71 "Hg3 mi
9:00 PM52 °FRain. Low clouds.9 mph96%29.73 "Hg3 mi
8:00 PM52 °FRain. Overcast.9 mph95%29.74 "Hg6 mi
7:00 PM52 °FDrizzle. Low clouds.9 mph96%29.75 "Hg2 mi
6:00 PM52 °FLow clouds.9 mph96%29.75 "Hg5 mi
5:00 PM52 °FLight rain. Overcast.10 mph97%29.77 "Hg2 mi
4:00 PM52 °FRain showers. Low clouds.9 mph96%29.78 "Hg2 mi
3:00 PM52 °FRain showers. Low clouds.10 mph96%29.78 "Hg3 mi
Weather by CustomWeather, © 2014

See weather overviewHow to use our weather pages